ECMWFFLT2_prec_precacc_216.txt.gz
Total_Precipitation_Accumulation
1.12 1.29 1.29 1.16 1.32 1.65 1.08 0.91 1.20 1.08 0.78 0.77 0.70 0.65 0.61 0.59 0.62 0.60 1.16 1.13 1.02 1.02 1.27 1.84 2.05 2.25 2.21 2.02 1.96 2.18 2.10 2.07 2.12 2.22 2.46 2.70 2.76 2.54 2.05 1.49 1.29 1.36 1.25 1.60 1.67 1.08 2.09 1.54 1.34 0.70 0.96 1.71
0.94 1.94 1.08 1.32 1.29 1.46 2.68 2.59 1.04 1.02 1.18 1.06 0.79 0.77 0.69 0.95 1.01 0.90 1.01 1.17 1.03 1.13 1.16 1.16 1.11 1.58 1.77 1.89 1.84 1.80 1.68 1.83 1.88 1.75 1.75 1.85 1.71 1.77 1.91 2.08 2.25 2.22 1.75 1.34 1.06 1.06 0.95 1.62 1.71 1.40 1.28 0.90
1.45 1.43 0.81 0.77 1.05 1.30 1.13 1.67 2.04 1.71 1.15 1.01 1.63 1.33 1.15 0.93 0.91 0.87 0.80 0.65 0.63 0.48 0.61 0.58 0.66 0.82 1.26 1.86 1.59 1.74 1.65 1.57 1.65 1.81 1.68 1.48 1.70 1.69 1.47 1.36 1.28 1.27 1.32 1.14 1.04 1.12 1.24 1.18 1.14 0.75 0.74 1.06
1.61 1.19 0.87 1.11 0.99 0.85 1.02 0.99 0.92 1.47 1.91 1.82 1.50 1.33 1.81 1.92 1.30 0.81 0.59 0.63 0.51 0.62 0.33 0.41 0.25 0.34 0.53 0.71 1.08 1.40 1.57 1.45 1.47 1.46 1.61 1.68 1.47 1.51 1.47 1.43 1.32 1.33 1.26 1.26 1.06 1.01 0.94 1.33 1.70 1.16 0.78 0.74
0.79 0.77 1.04 0.83 0.93 0.91 0.53 0.94 0.87 0.96 1.08 1.05 1.64 1.50 1.08 1.17 1.13 0.81 0.55 0.54 0.57 0.52 0.42 0.32 0.38 0.35 0.41 0.45 0.55 0.75 0.89 1.18 1.41 1.56 1.41 1.42 1.31 1.47 1.30 1.41 1.50 1.32 1.38 1.26 1.08 0.92 0.92 0.93 1.05 1.19 1.20 0.96
0.55 0.55 0.49 0.80 0.88 0.69 0.66 0.49 0.46 0.66 0.90 0.70 0.76 0.80 0.80 0.99 1.11 1.13 1.01 0.90 0.63 0.65 0.61 0.59 0.42 0.44 0.36 0.42 0.57 0.67 1.02 0.95 0.99 1.24 1.32 1.34 1.44 1.22 1.11 1.33 1.40 1.56 1.44 1.42 1.25 1.37 1.11 1.02 1.08 0.98 0.81 0.90
0.92 0.45 0.53 0.52 0.68 0.59 0.48 0.48 0.53 0.73 0.79 0.71 1.02 0.76 0.68 0.51 0.54 0.59 0.65 0.73 0.75 0.82 0.75 0.66 0.60 0.47 0.42 0.42 0.53 0.70 0.66 0.94 1.13 1.32 1.05 0.94 1.14 1.37 1.42 1.34 1.33 1.45 1.48 1.63 1.21 1.26 1.27 1.37 1.15 1.04 0.98 0.77
0.91 1.17 0.66 0.63 1.08 0.78 0.62 0.49 0.65 0.59 0.88 1.30 0.67 0.87 0.66 0.56 0.49 0.45 0.43 0.43 0.50 0.50 0.48 0.52 0.40 0.40 0.44 0.40 0.38 0.38 0.53 0.59 0.67 0.77 0.84 0.87 0.87 0.85 0.96 1.20 1.19 1.27 1.59 1.37 1.35 1.22 1.23 1.24 1.27 1.12 1.21 1.06
1.29 1.74 1.12 1.18 0.99 0.68 0.66 0.46 0.38 0.48 0.47 0.51 0.45 0.50 0.72 0.69 0.64 0.51 0.59 0.47 0.41 0.42 0.38 0.37 0.32 0.34 0.27 0.28 0.31 0.31 0.44 0.42 0.46 0.49 0.68 0.61 0.69 0.74 0.77 0.73 0.80 1.00 1.27 1.29 1.24 1.20 1.18 1.27 1.21 1.01 1.04 1.06
0.71 1.23 1.60 1.16 1.30 1.38 1.21 0.89 0.89 0.59 0.58 0.44 0.43 0.45 0.41 0.52 0.41 0.56 0.44 0.44 0.35 0.22 0.20 0.19 0.21 0.19 0.27 0.29 0.32 0.49 0.37 0.35 0.37 0.41 0.43 0.54 0.56 0.59 0.53 0.58 0.57 0.60 0.81 1.06 1.19 1.15 1.04 1.07 1.06 1.05 1.04 0.97
0.68 0.71 1.18 1.54 1.83 1.11 1.35 0.92 0.77 0.61 0.72 0.75 0.58 0.76 0.59 0.59 0.49 0.57 0.48 0.35 0.57 0.37 0.34 0.28 0.28 0.33 0.36 0.28 0.23 0.25 0.29 0.21 0.33 0.25 0.23 0.21 0.21 0.35 0.39 0.43 0.44 0.57 0.62 0.69 0.83 1.00 1.14 1.09 0.97 0.93 0.99 0.96
0.86 0.67 0.64 0.98 1.16 1.70 1.43 1.67 1.59 1.22 1.11 1.23 0.89 0.84 0.74 0.95 0.80 0.63 0.63 0.63 0.48 0.54 0.69 0.46 0.47 0.38 0.29 0.22 0.25 0.22 0.23 0.19 0.15 0.25 0.23 0.19 0.13 0.15 0.23 0.33 0.38 0.44 0.48 0.61 0.62 0.68 0.84 0.97 0.91 0.86 0.83 0.79
0.59 0.71 0.78 0.98 1.18 0.89 0.90 0.84 0.98 0.85 1.13 0.90 0.83 0.63 0.51 0.65 0.55 0.63 0.57 0.51 0.46 0.58 0.49 0.40 0.34 0.39 0.35 0.33 0.34 0.37 0.19 0.18 0.17 0.19 0.21 0.17 0.16 0.18 0.22 0.25 0.31 0.38 0.39 0.48 0.61 0.59 0.61 0.73 0.82 0.80 0.83 0.74
0.49 0.67 0.67 0.58 0.60 0.76 0.67 0.80 0.83 0.85 1.03 0.81 0.62 0.67 0.79 0.71 0.67 0.53 0.67 0.69 0.58 0.56 0.64 0.42 0.38 0.42 0.40 0.38 0.30 0.21 0.16 0.14 0.11 0.12 0.11 0.13 0.12 0.15 0.13 0.13 0.17 0.28 0.36 0.37 0.45 0.57 0.60 0.62 0.63 0.73 0.77 0.80
0.42 0.35 0.57 0.61 0.69 0.37 0.35 0.56 0.60 0.73 0.59 0.56 0.68 0.65 0.63 0.66 0.64 0.58 0.51 0.57 0.37 0.46 0.37 0.40 0.33 0.34 0.30 0.37 0.26 0.46 0.19 0.21 0.15 0.10 0.08 0.08 0.09 0.14 0.07 0.07 0.14 0.15 0.16 0.26 0.34 0.43 0.50 0.58 0.56 0.53 0.71 0.72
0.41 0.27 0.39 0.46 0.33 0.51 0.62 0.54 0.59 0.50 0.39 0.83 1.29 0.69 0.49 0.45 0.78 0.40 0.56 0.68 0.48 0.46 0.50 0.48 0.41 0.36 0.37 0.27 0.31 0.34 0.27 0.19 0.14 0.18 0.26 0.24 0.12 0.12 0.08 0.06 0.06 0.12 0.12 0.10 0.17 0.29 0.36 0.45 0.65 0.56 0.57 0.60
0.53 0.57 0.35 0.40 0.25 0.27 0.62 0.77 0.66 0.72 0.55 0.72 0.77 0.94 0.82 1.22 1.05 0.76 0.65 0.68 0.59 0.56 0.55 0.52 0.56 0.54 0.44 0.41 0.55 0.55 0.44 0.42 0.42 0.31 0.13 0.12 0.12 0.19 0.14 0.19 0.10 0.12 0.10 0.10 0.10 0.10 0.19 0.35 0.38 0.46 0.55 0.51
0.58 0.34 0.34 0.87 0.40 0.38 0.33 0.42 0.46 0.76 0.62 0.40 0.57 0.64 0.60 0.72 0.46 0.60 0.52 0.53 0.48 0.52 0.60 0.68 0.61 0.63 0.59 0.54 0.57 0.53 0.43 0.52 0.48 0.44 0.32 0.32 0.18 0.17 0.22 0.17 0.13 0.14 0.12 0.10 0.10 0.12 0.12 0.11 0.28 0.31 0.36 0.49
0.59 0.47 0.63 0.61 0.54 0.69 0.53 0.37 0.42 0.43 0.36 0.70 0.59 0.59 0.58 0.52 0.67 0.52 0.46 0.69 0.54 0.53 0.47 0.56 0.59 0.57 0.73 0.60 0.58 0.59 0.51 0.54 0.50 0.61 0.44 0.51 0.29 0.27 0.25 0.19 0.15 0.16 0.18 0.18 0.12 0.12 0.12 0.11 0.14 0.20 0.29 0.30
0.31 0.34 0.74 0.71 0.73 1.20 0.94 0.75 0.96 1.28 0.80 0.89 1.01 1.25 0.75 0.69 1.31 0.71 0.65 0.52 0.46 0.44 0.51 0.53 0.55 0.66 0.59 0.65 0.58 0.64 0.61 0.65 0.60 0.56 0.62 0.50 0.43 0.35 0.32 0.29 0.25 0.22 0.17 0.14 0.15 0.11 0.08 0.08 0.10 0.12 0.15 0.21
0.23 0.41 0.42 0.34 0.74 0.64 0.94 0.77 0.98 1.09 1.23 0.86 0.59 1.03 0.79 0.81 0.71 0.77 0.73 0.78 0.82 0.70 0.68 0.66 0.54 0.50 0.55 0.57 0.63 0.64 0.61 0.51 0.64 0.57 0.64 0.68 0.68 0.53 0.48 0.42 0.31 0.22 0.20 0.17 0.13 0.12 0.14 0.13 0.10 0.07 0.08 0.14
0.51 0.55 0.32 0.42 0.59 0.42 0.57 0.62 0.63 0.83 0.87 0.74 0.56 0.83 0.95 0.99 0.77 1.03 0.94 0.77 0.74 0.70 0.73 0.85 0.78 0.67 0.69 0.66 0.68 0.72 0.72 0.68 0.61 0.59 0.60 0.65 0.73 0.71 0.57 0.52 0.47 0.41 0.31 0.21 0.15 0.13 0.12 0.11 0.12 0.12 0.08 0.08
0.46 0.45 0.57 0.62 0.77 0.81 0.71 0.57 0.45 0.79 0.61 0.55 0.56 0.59 0.69 0.83 0.77 0.65 0.77 0.90 0.82 0.85 0.80 0.86 0.86 0.83 0.79 0.74 0.80 0.84 0.84 0.87 0.81 0.67 0.58 0.59 0.59 0.67 0.77 0.69 0.53 0.46 0.37 0.33 0.29 0.18 0.14 0.13 0.10 0.09 0.10 0.11
0.28 0.39 0.47 0.46 0.54 0.67 0.75 0.80 0.78 0.63 0.55 0.45 0.43 0.61 0.83 1.04 0.62 0.61 0.72 0.65 0.67 0.78 0.80 0.82 0.87 0.87 0.93 0.83 0.88 0.89 0.96 0.94 0.86 0.97 0.94 0.86 0.73 0.73 0.73 0.75 0.72 0.60 0.51 0.45 0.38 0.31 0.22 0.18 0.15 0.12 0.10 0.10
0.39 0.34 0.43 0.52 0.45 0.46 0.47 0.48 0.58 0.55 0.55 0.65 0.78 0.80 0.69 0.54 0.54 0.51 0.64 0.47 0.60 0.67 0.69 0.60 0.67 0.72 0.75 0.71 0.80 0.85 0.90 0.93 0.96 1.04 1.08 1.15 1.18 1.13 0.96 0.87 0.75 0.71 0.66 0.62 0.55 0.44 0.36 0.27 0.21 0.18 0.16 0.16
0.29 0.33 0.38 0.37 0.51 0.67 0.62 0.58 0.49 0.49 0.58 0.57 0.86 0.63 0.62 0.71 0.79 0.79 0.76 0.57 0.55 0.48 0.46 0.46 0.52 0.52 0.53 0.69 0.53 0.57 0.67 0.74 0.81 0.93 0.98 0.99 1.03 1.09 1.00 0.93 0.85 0.84 0.86 1.02 0.84 0.63 0.47 0.32 0.25 0.24 0.24 0.23
0.43 0.38 0.28 0.26 0.30 0.36 0.33 0.51 0.63 0.84 0.75 0.94 0.66 0.84 0.86 0.76 0.75 0.77 0.59 0.65 0.69 0.75 0.69 0.69 0.52 0.44 0.48 0.54 0.60 0.52 0.55 0.61 0.67 0.79 0.78 0.81 0.84 0.89 0.82 0.82 0.86 0.93 0.98 1.02 0.88 0.71 0.63 0.55 0.39 0.27 0.25 0.25
0.32 0.26 0.32 0.43 0.40 0.36 0.36 0.31 0.46 0.70 0.43 0.51 0.54 0.54 0.56 0.63 0.71 0.74 0.73 0.88 0.73 0.86 0.65 0.61 0.59 0.61 0.50 0.48 0.47 0.49 0.47 0.50 0.55 0.59 0.66 0.74 0.81 0.82 0.80 0.79 0.75 0.73 0.73 0.96 1.02 1.11 1.08 0.95 0.60 0.48 0.35 0.26
0.16 0.20 0.34 0.41 0.48 0.49 0.44 0.37 0.33 0.28 0.35 0.36 0.37 0.40 0.42 0.40 0.39 0.48 0.44 0.55 0.49 0.50 0.64 0.68 0.60 0.62 0.59 0.50 0.50 0.48 0.47 0.46 0.46 0.46 0.55 0.59 0.67 0.75 0.87 0.81 0.70 0.67 0.67 0.72 0.86 1.21 1.10 1.07 0.92 0.76 0.55 0.28
0.22 0.26 0.26 0.28 0.33 0.35 0.42 0.43 0.34 0.36 0.28 0.19 0.18 0.21 0.20 0.35 0.40 0.33 0.29 0.35 0.56 0.48 0.57 0.57 0.70 0.66 0.66 0.68 0.62 0.60 0.51 0.53 0.41 0.45 0.41 0.44 0.49 0.55 0.59 0.68 0.70 0.74 0.65 0.69 0.73 0.89 1.12 1.13 0.96 0.68 0.44 0.34
0.21 0.21 0.25 0.29 0.28 0.21 0.21 0.22 0.23 0.28 0.37 0.35 0.44 0.71 0.28 0.25 0.35 0.28 0.28 0.38 0.43 0.52 0.40 0.54 0.50 0.56 0.54 0.58 0.68 0.74 0.66 0.61 0.56 0.47 0.56 0.55 0.45 0.48 0.50 0.54 0.59 0.57 0.56 0.54 0.61 0.74 0.84 0.85 0.84 0.75 0.60 0.54

ECMWFFLT2_prec_precacc_222.txt.gz
Total_Precipitation_Accumulation
1.12 1.29 1.29 1.16 1.33 1.66 1.10 0.92 1.21 1.09 0.80 0.80 0.74 0.68 0.63 0.59 0.62 0.60 1.16 1.13 1.02 1.02 1.27 1.84 2.05 2.25 2.21 2.02 1.96 2.18 2.10 2.07 2.12 2.22 2.46 2.70 2.76 2.55 2.06 1.49 1.29 1.36 1.25 1.60 1.67 1.08 2.09 1.54 1.34 0.70 0.96 1.71
0.94 1.94 1.08 1.32 1.29 1.46 2.68 2.60 1.05 1.03 1.19 1.09 0.80 0.79 0.70 0.96 1.01 0.90 1.01 1.17 1.03 1.13 1.16 1.16 1.11 1.58 1.77 1.89 1.84 1.80 1.68 1.83 1.88 1.75 1.75 1.86 1.71 1.77 1.91 2.08 2.25 2.22 1.75 1.34 1.06 1.06 0.95 1.62 1.71 1.40 1.28 0.90
1.46 1.43 0.81 0.78 1.06 1.30 1.14 1.67 2.06 1.74 1.18 1.07 1.66 1.36 1.17 0.93 0.92 0.87 0.80 0.65 0.63 0.48 0.61 0.58 0.66 0.82 1.26 1.86 1.59 1.74 1.65 1.57 1.65 1.81 1.68 1.49 1.70 1.69 1.47 1.36 1.28 1.27 1.32 1.14 1.04 1.12 1.24 1.18 1.14 0.75 0.74 1.06
1.64 1.21 0.87 1.11 0.99 0.85 1.03 1.00 0.93 1.49 1.97 1.86 1.53 1.34 1.82 1.93 1.30 0.81 0.59 0.63 0.51 0.62 0.33 0.41 0.25 0.34 0.53 0.71 1.08 1.40 1.57 1.45 1.47 1.46 1.61 1.68 1.47 1.51 1.47 1.43 1.32 1.33 1.26 1.26 1.06 1.01 0.94 1.33 1.70 1.16 0.78 0.74
0.89 0.80 1.05 0.84 0.97 0.92 0.54 0.96 0.89 0.96 1.09 1.06 1.67 1.52 1.09 1.18 1.14 0.81 0.55 0.54 0.57 0.52 0.42 0.32 0.38 0.35 0.41 0.45 0.55 0.75 0.89 1.18 1.41 1.56 1.41 1.42 1.31 1.47 1.30 1.41 1.50 1.32 1.38 1.26 1.08 0.92 0.92 0.93 1.05 1.19 1.20 0.96
0.63 0.63 0.51 0.84 0.98 0.79 0.69 0.54 0.47 0.66 0.90 0.71 0.77 0.83 0.82 1.00 1.11 1.13 1.01 0.90 0.63 0.65 0.61 0.59 0.42 0.44 0.36 0.42 0.57 0.67 1.02 0.95 0.99 1.24 1.32 1.34 1.44 1.22 1.11 1.33 1.40 1.56 1.44 1.42 1.25 1.37 1.11 1.02 1.08 0.98 0.81 0.90
0.97 0.50 0.57 0.58 0.79 0.74 0.52 0.49 0.54 0.73 0.80 0.71 1.02 0.77 0.69 0.52 0.54 0.59 0.65 0.73 0.75 0.82 0.75 0.66 0.60 0.47 0.42 0.42 0.53 0.70 0.66 0.94 1.13 1.32 1.05 0.94 1.14 1.37 1.42 1.34 1.33 1.45 1.48 1.63 1.21 1.26 1.27 1.37 1.15 1.04 0.98 0.77
1.05 1.24 0.69 0.69 1.16 0.83 0.65 0.51 0.65 0.59 0.88 1.30 0.67 0.87 0.67 0.56 0.49 0.45 0.43 0.43 0.50 0.50 0.48 0.52 0.40 0.40 0.44 0.40 0.38 0.38 0.53 0.59 0.67 0.77 0.84 0.87 0.87 0.85 0.96 1.20 1.19 1.27 1.59 1.37 1.35 1.22 1.23 1.24 1.27 1.12 1.21 1.06
1.42 1.83 1.15 1.23 1.02 0.70 0.67 0.46 0.38 0.48 0.47 0.51 0.45 0.50 0.74 0.71 0.65 0.51 0.59 0.47 0.41 0.42 0.38 0.37 0.32 0.34 0.27 0.28 0.31 0.31 0.44 0.42 0.46 0.49 0.68 0.61 0.69 0.74 0.77 0.73 0.80 1.00 1.27 1.29 1.24 1.20 1.18 1.27 1.21 1.01 1.04 1.06
0.75 1.33 1.63 1.19 1.33 1.42 1.22 0.89 0.89 0.59 0.58 0.45 0.43 0.45 0.42 0.55 0.43 0.57 0.44 0.44 0.35 0.22 0.20 0.19 0.21 0.19 0.27 0.29 0.32 0.49 0.37 0.35 0.37 0.41 0.43 0.54 0.56 0.59 0.53 0.58 0.57 0.60 0.81 1.06 1.19 1.15 1.04 1.07 1.06 1.05 1.04 0.97
1.38 1.28 1.45 1.72 1.83 1.12 1.36 0.92 0.77 0.61 0.73 0.76 0.59 0.77 0.60 0.60 0.50 0.58 0.49 0.35 0.57 0.37 0.34 0.28 0.28 0.33 0.36 0.28 0.23 0.25 0.29 0.21 0.33 0.25 0.23 0.21 0.21 0.35 0.39 0.43 0.44 0.57 0.62 0.69 0.83 1.00 1.14 1.09 0.97 0.93 0.99 0.96
1.54 0.87 0.83 1.12 1.27 1.81 1.44 1.67 1.59 1.22 1.11 1.23 0.90 0.85 0.75 0.95 0.80 0.63 0.63 0.63 0.48 0.54 0.69 0.46 0.47 0.38 0.29 0.22 0.25 0.22 0.23 0.19 0.15 0.25 0.23 0.19 0.13 0.15 0.23 0.33 0.38 0.44 0.48 0.61 0.62 0.68 0.84 0.97 0.91 0.86 0.83 0.79
1.41 1.18 1.02 1.17 1.30 0.97 0.96 0.86 0.98 0.85 1.13 0.90 0.83 0.63 0.51 0.65 0.55 0.63 0.57 0.51 0.46 0.58 0.49 0.40 0.34 0.39 0.35 0.33 0.34 0.37 0.19 0.18 0.17 0.19 0.21 0.17 0.16 0.18 0.22 0.25 0.31 0.38 0.39 0.48 0.61 0.59 0.61 0.73 0.82 0.80 0.83 0.74
0.87 1.05 0.97 0.84 0.82 0.86 0.71 0.85 0.84 0.85 1.03 0.81 0.62 0.67 0.79 0.71 0.67 0.53 0.67 0.69 0.58 0.56 0.64 0.42 0.38 0.42 0.40 0.38 0.30 0.21 0.16 0.14 0.11 0.12 0.11 0.13 0.12 0.15 0.13 0.13 0.17 0.28 0.36 0.37 0.45 0.57 0.60 0.62 0.63 0.73 0.77 0.80
0.77 0.72 0.92 0.88 0.88 0.50 0.45 0.60 0.62 0.73 0.59 0.56 0.68 0.65 0.63 0.66 0.64 0.58 0.51 0.57 0.37 0.46 0.37 0.40 0.33 0.34 0.30 0.37 0.26 0.46 0.19 0.21 0.15 0.10 0.08 0.08 0.09 0.14 0.07 0.07 0.14 0.15 0.16 0.26 0.34 0.43 0.50 0.58 0.56 0.53 0.71 0.72
0.85 0.63 0.81 0.85 0.69 0.73 0.74 0.63 0.63 0.53 0.40 0.84 1.29 0.69 0.49 0.45 0.78 0.40 0.56 0.68 0.48 0.46 0.50 0.48 0.41 0.36 0.37 0.27 0.31 0.34 0.27 0.19 0.14 0.18 0.26 0.24 0.12 0.12 0.08 0.06 0.06 0.12 0.12 0.10 0.17 0.29 0.36 0.45 0.65 0.56 0.57 0.60
1.10 1.09 0.80 0.82 0.66 0.68 0.96 0.91 0.76 0.79 0.69 0.80 0.82 0.97 0.82 1.22 1.05 0.76 0.65 0.68 0.59 0.56 0.55 0.52 0.56 0.54 0.44 0.41 0.55 0.55 0.44 0.42 0.42 0.31 0.13 0.12 0.12 0.19 0.14 0.19 0.10 0.12 0.10 0.10 0.10 0.10 0.19 0.35 0.38 0.46 0.55 0.51
1.24 0.97 0.80 1.27 0.78 0.88 0.71 0.72 0.66 0.91 0.70 0.48 0.65 0.77 0.75 0.72 0.46 0.60 0.56 0.53 0.48 0.52 0.60 0.68 0.61 0.63 0.59 0.54 0.57 0.53 0.43 0.52 0.48 0.44 0.32 0.32 0.18 0.17 0.22 0.17 0.13 0.14 0.12 0.10 0.10 0.12 0.12 0.11 0.28 0.31 0.36 0.49
1.68 1.51 1.45 1.27 1.03 1.04 0.88 0.72 0.64 0.61 0.47 0.75 0.60 0.60 0.66 0.55 0.68 0.52 0.47 0.70 0.54 0.53 0.47 0.56 0.59 0.57 0.73 0.60 0.58 0.59 0.51 0.54 0.50 0.61 0.44 0.51 0.29 0.27 0.25 0.19 0.15 0.16 0.18 0.18 0.12 0.12 0.12 0.11 0.14 0.20 0.29 0.30
0.66 0.87 1.48 1.88 1.49 1.74 1.43 1.12 1.26 1.49 0.92 0.98 1.08 1.30 0.80 0.73 1.42 0.80 0.66 0.52 0.46 0.44 0.51 0.53 0.55 0.66 0.59 0.65 0.58 0.64 0.61 0.65 0.60 0.56 0.62 0.50 0.43 0.35 0.32 0.29 0.25 0.22 0.17 0.14 0.15 0.11 0.08 0.08 0.10 0.12 0.15 0.21
0.40 0.67 0.89 0.87 1.36 1.49 1.57 1.26 1.40 1.43 1.50 1.07 0.74 1.14 0.89 0.90 0.77 0.80 0.76 0.89 0.84 0.71 0.68 0.66 0.54 0.50 0.55 0.57 0.63 0.64 0.61 0.51 0.64 0.57 0.64 0.68 0.68 0.53 0.48 0.42 0.31 0.22 0.20 0.17 0.13 0.12 0.14 0.13 0.10 0.07 0.08 0.14
0.68 0.76 0.55 0.82 1.18 1.00 1.13 1.11 1.02 1.17 1.17 1.04 0.88 1.13 1.21 1.23 0.95 1.18 1.02 0.83 0.78 0.72 0.75 0.87 0.79 0.68 0.69 0.66 0.68 0.72 0.72 0.68 0.61 0.59 0.60 0.65 0.73 0.71 0.57 0.52 0.47 0.41 0.31 0.21 0.15 0.13 0.12 0.11 0.12 0.12 0.08 0.08
0.68 0.72 0.78 0.84 1.02 1.19 1.30 1.23 1.03 1.25 1.00 0.87 0.87 0.88 1.01 1.10 1.04 0.89 0.95 1.04 0.96 0.94 0.90 0.98 0.97 0.86 0.81 0.76 0.81 0.84 0.84 0.87 0.81 0.67 0.58 0.59 0.59 0.67 0.77 0.69 0.53 0.46 0.37 0.33 0.29 0.18 0.14 0.13 0.10 0.09 0.10 0.11
0.51 0.66 0.84 0.80 0.90 1.00 1.08 1.22 1.34 1.35 1.20 0.98 0.84 0.96 1.12 1.31 0.93 0.90 1.00 0.94 0.92 1.00 1.00 0.99 1.00 0.98 1.08 0.93 0.96 0.95 0.99 0.95 0.86 0.97 0.94 0.86 0.73 0.73 0.73 0.75 0.72 0.60 0.51 0.45 0.38 0.31 0.22 0.18 0.15 0.12 0.10 0.10
0.68 0.57 0.63 0.76 0.73 0.82 0.91 0.95 1.05 1.04 1.11 1.22 1.38 1.46 1.32 1.10 1.03 0.88 0.93 0.72 0.82 0.87 0.88 0.77 0.80 0.82 0.85 0.83 0.91 0.96 1.00 0.99 0.98 1.04 1.08 1.15 1.18 1.13 0.96 0.87 0.75 0.71 0.66 0.62 0.55 0.44 0.36 0.27 0.21 0.18 0.16 0.16
0.52 0.63 0.71 0.67 0.75 0.84 0.87 0.94 0.92 0.94 1.04 1.09 1.39 1.12 1.06 1.18 1.25 1.24 1.19 0.97 0.90 0.77 0.70 0.66 0.66 0.62 0.61 0.75 0.58 0.61 0.71 0.78 0.85 0.96 0.99 0.99 1.03 1.09 1.00 0.93 0.85 0.84 0.86 1.02 0.84 0.63 0.47 0.32 0.25 0.24 0.24 0.23
0.57 0.55 0.55 0.58 0.63 0.66 0.57 0.71 0.87 1.18 1.16 1.35 1.06 1.30 1.44 1.41 1.41 1.38 1.13 1.14 1.15 1.24 1.13 1.10 0.87 0.74 0.71 0.72 0.74 0.63 0.64 0.67 0.71 0.82 0.80 0.81 0.84 0.89 0.82 0.82 0.86 0.93 0.98 1.02 0.88 0.71 0.63 0.55 0.39 0.27 0.25 0.25
0.45 0.41 0.53 0.64 0.64 0.61 0.65 0.62 0.75 0.95 0.66 0.71 0.73 0.77 0.82 0.92 1.08 1.18 1.21 1.36 1.23 1.36 1.11 1.03 0.95 0.92 0.74 0.67 0.62 0.60 0.57 0.57 0.61 0.64 0.68 0.76 0.82 0.83 0.80 0.79 0.75 0.73 0.73 0.96 1.02 1.11 1.08 0.95 0.60 0.48 0.35 0.26
0.30 0.34 0.49 0.58 0.68 0.74 0.74 0.71 0.65 0.56 0.59 0.58 0.56 0.58 0.62 0.64 0.64 0.80 0.78 0.96 0.91 1.02 1.14 1.12 0.98 0.93 0.83 0.68 0.64 0.59 0.55 0.52 0.51 0.49 0.58 0.61 0.68 0.76 0.87 0.81 0.70 0.67 0.67 0.72 0.86 1.21 1.10 1.07 0.92 0.76 0.55 0.28
0.34 0.39 0.38 0.38 0.43 0.46 0.58 0.62 0.58 0.65 0.61 0.59 0.61 0.62 0.55 0.65 0.66 0.58 0.53 0.58 0.80 0.74 0.85 0.86 0.97 0.90 0.87 0.86 0.77 0.72 0.61 0.61 0.47 0.49 0.44 0.46 0.51 0.56 0.59 0.68 0.70 0.74 0.65 0.69 0.73 0.89 1.12 1.13 0.96 0.68 0.44 0.34
0.31 0.31 0.37 0.40 0.39 0.32 0.31 0.32 0.35 0.41 0.52 0.53 0.67 0.98 0.60 0.60 0.74 0.69 0.69 0.78 0.80 0.86 0.72 0.84 0.77 0.79 0.73 0.72 0.79 0.83 0.75 0.68 0.62 0.51 0.58 0.56 0.46 0.48 0.50 0.54 0.59 0.57 0.56 0.54 0.61 0.74 0.84 0.85 0.84 0.75 0.60 0.54

ECMWFFLT2_prec_precacc_228.txt.gz
Total_Precipitation_Accumulation
1.13 1.30 1.30 1.16 1.33 1.66 1.11 0.93 1.22 1.13 0.81 0.82 0.75 0.69 0.65 0.60 0.63 0.61 1.16 1.13 1.02 1.02 1.27 1.84 2.05 2.25 2.21 2.02 1.96 2.18 2.10 2.07 2.12 2.23 2.47 2.71 2.78 2.56 2.06 1.49 1.29 1.36 1.25 1.60 1.67 1.08 2.09 1.54 1.34 0.70 0.96 1.71
0.95 1.95 1.09 1.33 1.30 1.47 2.70 2.61 1.07 1.05 1.22 1.13 0.83 0.81 0.71 0.96 1.01 0.90 1.01 1.17 1.03 1.13 1.16 1.16 1.11 1.58 1.77 1.89 1.84 1.80 1.68 1.83 1.88 1.76 1.76 1.87 1.72 1.77 1.91 2.08 2.25 2.22 1.75 1.34 1.06 1.06 0.95 1.62 1.71 1.40 1.28 0.90
1.47 1.43 0.82 0.78 1.06 1.30 1.16 1.69 2.08 1.76 1.20 1.10 1.68 1.38 1.18 0.94 0.92 0.87 0.80 0.65 0.63 0.48 0.61 0.58 0.66 0.82 1.26 1.86 1.59 1.74 1.65 1.57 1.65 1.82 1.69 1.50 1.70 1.69 1.47 1.36 1.28 1.27 1.32 1.14 1.04 1.12 1.24 1.18 1.14 0.75 0.74 1.06
1.66 1.21 0.87 1.11 0.99 0.85 1.04 1.02 0.95 1.51 2.08 1.88 1.57 1.38 1.84 1.94 1.31 0.82 0.60 0.63 0.51 0.62 0.33 0.41 0.25 0.34 0.53 0.71 1.08 1.40 1.57 1.45 1.47 1.47 1.63 1.70 1.47 1.51 1.47 1.43 1.32 1.33 1.26 1.26 1.06 1.01 0.94 1.33 1.70 1.16 0.78 0.74
1.05 0.84 1.05 0.85 0.97 0.92 0.54 0.97 0.93 0.97 1.11 1.11 1.78 1.55 1.12 1.20 1.16 0.81 0.55 0.54 0.57 0.52 0.42 0.32 0.38 0.35 0.41 0.45 0.55 0.75 0.89 1.18 1.41 1.56 1.43 1.44 1.32 1.47 1.30 1.41 1.50 1.32 1.38 1.26 1.08 0.92 0.92 0.93 1.05 1.19 1.20 0.96
0.74 0.74 0.52 0.87 1.00 0.81 0.72 0.57 0.48 0.86 0.97 0.84 0.86 0.91 0.86 1.03 1.13 1.14 1.01 0.90 0.63 0.65 0.61 0.59 0.42 0.44 0.36 0.42 0.57 0.67 1.02 0.95 0.99 1.25 1.33 1.36 1.44 1.22 1.11 1.33 1.40 1.56 1.44 1.42 1.25 1.37 1.11 1.02 1.08 0.98 0.81 0.90
1.49 0.64 0.66 0.71 0.84 0.77 0.55 0.50 0.59 0.81 0.88 0.80 1.10 0.85 0.74 0.54 0.55 0.59 0.65 0.73 0.75 0.82 0.75 0.66 0.60 0.47 0.42 0.42 0.53 0.70 0.66 0.94 1.13 1.32 1.06 0.94 1.14 1.37 1.42 1.34 1.33 1.45 1.48 1.63 1.21 1.26 1.27 1.37 1.15 1.04 0.98 0.77
1.79 1.45 0.89 0.89 1.44 0.96 0.74 0.57 0.71 0.61 0.98 1.42 0.74 0.97 0.72 0.61 0.52 0.46 0.43 0.44 0.50 0.51 0.48 0.52 0.40 0.40 0.44 0.40 0.38 0.38 0.53 0.59 0.67 0.77 0.84 0.87 0.87 0.85 0.96 1.20 1.19 1.27 1.59 1.37 1.35 1.22 1.23 1.24 1.27 1.12 1.21 1.06
2.09 2.18 1.33 1.55 1.49 0.91 0.77 0.55 0.42 0.49 0.51 0.60 0.61 0.61 0.81 0.73 0.68 0.55 0.62 0.49 0.42 0.42 0.38 0.37 0.32 0.34 0.27 0.28 0.31 0.31 0.44 0.42 0.46 0.49 0.68 0.61 0.69 0.74 0.77 0.73 0.80 1.00 1.27 1.29 1.24 1.20 1.18 1.27 1.21 1.01 1.04 1.06
1.57 1.95 1.98 1.49 1.56 1.59 1.34 1.02 1.00 0.60 0.59 0.54 0.54 0.56 0.55 0.57 0.44 0.61 0.49 0.48 0.37 0.23 0.20 0.19 0.21 0.19 0.27 0.29 0.32 0.49 0.37 0.35 0.37 0.41 0.43 0.54 0.56 0.59 0.53 0.58 0.57 0.60 0.81 1.06 1.19 1.15 1.04 1.07 1.06 1.05 1.04 0.97
2.28 2.08 2.13 2.47 2.31 1.41 1.62 1.40 0.99 0.65 0.73 0.77 0.61 0.78 0.61 0.62 0.52 0.59 0.50 0.37 0.60 0.39 0.35 0.29 0.29 0.34 0.37 0.28 0.24 0.25 0.29 0.21 0.33 0.25 0.23 0.21 0.21 0.35 0.39 0.43 0.44 0.57 0.62 0.69 0.83 1.00 1.14 1.09 0.97 0.93 0.99 0.96
2.26 1.64 1.73 2.11 2.12 2.78 2.30 2.21 1.95 1.27 1.15 1.29 0.90 0.88 0.76 1.00 1.05 1.03 0.84 0.63 0.48 0.54 0.69 0.47 0.47 0.38 0.29 0.22 0.25 0.22 0.23 0.19 0.15 0.25 0.23 0.19 0.13 0.15 0.23 0.33 0.38 0.44 0.48 0.61 0.62 0.68 0.84 0.97 0.91 0.86 0.83 0.79
1.94 1.89 1.71 2.08 2.10 1.60 1.51 1.44 1.63 1.27 1.39 1.21 1.02 0.76 0.64 0.76 0.64 0.66 0.69 0.68 0.50 0.58 0.49 0.40 0.34 0.39 0.35 0.33 0.34 0.37 0.19 0.18 0.17 0.19 0.21 0.17 0.16 0.18 0.22 0.25 0.31 0.38 0.39 0.48 0.61 0.59 0.61 0.73 0.82 0.80 0.83 0.74
1.29 1.63 1.74 1.63 1.62 1.70 1.52 1.52 1.31 1.26 1.33 1.05 0.91 0.88 0.91 0.88 0.80 0.59 0.77 0.72 0.60 0.56 0.64 0.42 0.38 0.42 0.40 0.38 0.30 0.21 0.16 0.14 0.11 0.12 0.11 0.13 0.12 0.15 0.13 0.13 0.17 0.28 0.36 0.37 0.45 0.57 0.60 0.62 0.63 0.73 0.77 0.80
1.27 1.21 1.50 1.62 1.79 1.43 1.17 1.28 1.39 1.61 1.23 1.02 1.01 0.99 0.84 0.92 0.78 0.71 0.54 0.58 0.37 0.46 0.37 0.40 0.33 0.34 0.30 0.37 0.26 0.46 0.19 0.21 0.15 0.10 0.08 0.08 0.09 0.14 0.07 0.07 0.14 0.15 0.16 0.26 0.34 0.43 0.50 0.58 0.56 0.53 0.71 0.72
1.21 1.07 1.30 1.37 1.33 1.63 1.73 1.63 1.69 1.44 1.13 1.47 1.80 1.12 0.92 0.64 0.93 0.51 0.62 0.73 0.50 0.46 0.50 0.49 0.42 0.36 0.37 0.27 0.31 0.34 0.27 0.19 0.14 0.18 0.26 0.24 0.12 0.12 0.08 0.06 0.06 0.12 0.12 0.10 0.17 0.29 0.36 0.45 0.65 0.56 0.57 0.60
1.41 1.44 1.18 1.22 1.10 1.26 1.74 1.84 1.73 1.72 1.51 1.56 1.43 1.49 1.40 1.69 1.39 0.95 0.79 0.87 0.66 0.58 0.57 0.63 0.57 0.55 0.44 0.41 0.55 0.55 0.44 0.44 0.44 0.31 0.13 0.13 0.12 0.19 0.14 0.19 0.10 0.12 0.10 0.10 0.10 0.10 0.19 0.35 0.38 0.46 0.55 0.51
1.53 1.35 1.23 1.68 1.20 1.31 1.23 1.48 1.60 1.86 1.66 1.24 1.28 1.36 1.32 1.22 0.88 0.94 0.85 0.73 0.65 0.62 0.65 0.71 0.62 0.65 0.61 0.55 0.57 0.53 0.43 0.52 0.48 0.44 0.32 0.32 0.18 0.17 0.22 0.17 0.13 0.14 0.12 0.10 0.10 0.12 0.12 0.11 0.28 0.31 0.36 0.49
1.79 1.70 1.69 1.60 1.48 1.58 1.51 1.57 1.50 1.45 1.35 1.62 1.44 1.42 1.42 1.15 1.14 0.91 0.80 0.97 0.77 0.69 0.57 0.61 0.60 0.58 0.78 0.60 0.58 0.59 0.51 0.54 0.50 0.61 0.44 0.51 0.29 0.27 0.25 0.19 0.15 0.16 0.18 0.18 0.12 0.12 0.12 0.11 0.14 0.20 0.29 0.30
0.72 0.94 1.63 2.24 1.96 2.19 1.95 1.68 2.00 2.48 1.97 2.03 2.08 2.21 1.60 1.44 2.08 1.39 1.14 0.91 0.78 0.68 0.64 0.58 0.57 0.66 0.59 0.65 0.58 0.65 0.61 0.65 0.60 0.56 0.62 0.50 0.43 0.35 0.32 0.29 0.25 0.22 0.17 0.14 0.15 0.11 0.08 0.08 0.10 0.12 0.15 0.21
0.45 0.73 0.96 0.96 1.53 1.92 2.09 1.82 2.02 1.94 2.11 1.85 1.56 1.92 1.65 1.68 1.53 1.47 1.36 1.40 1.25 1.02 0.91 0.80 0.63 0.56 0.60 0.60 0.64 0.65 0.61 0.51 0.64 0.57 0.64 0.68 0.68 0.53 0.48 0.42 0.31 0.22 0.20 0.17 0.13 0.12 0.14 0.13 0.10 0.07 0.08 0.14
0.74 0.82 0.62 0.89 1.28 1.17 1.37 1.56 1.67 1.93 1.86 1.60 1.44 1.77 1.89 1.86 1.58 1.80 1.69 1.48 1.28 1.13 1.08 1.14 1.02 0.87 0.83 0.76 0.75 0.75 0.73 0.69 0.61 0.59 0.60 0.65 0.73 0.71 0.57 0.52 0.47 0.41 0.31 0.21 0.15 0.13 0.12 0.11 0.12 0.12 0.08 0.08
0.75 0.81 0.88 0.95 1.14 1.30 1.51 1.50 1.31 1.59 1.54 1.64 1.65 1.55 1.62 1.73 1.71 1.54 1.54 1.58 1.47 1.39 1.25 1.27 1.26 1.12 1.03 0.94 0.91 0.92 0.90 0.92 0.84 0.68 0.59 0.59 0.59 0.67 0.77 0.69 0.53 0.46 0.37 0.33 0.29 0.18 0.14 0.13 0.10 0.09 0.10 0.11
0.55 0.73 0.94 0.93 1.06 1.16 1.24 1.38 1.57 1.66 1.57 1.40 1.36 1.58 1.81 2.08 1.70 1.65 1.73 1.64 1.54 1.51 1.42 1.36 1.33 1.28 1.32 1.13 1.15 1.12 1.12 1.04 0.91 1.00 0.95 0.86 0.73 0.73 0.73 0.75 0.72 0.60 0.51 0.45 0.38 0.31 0.22 0.18 0.15 0.12 0.10 0.10
0.71 0.61 0.70 0.87 0.86 0.98 1.10 1.16 1.27 1.31 1.49 1.73 1.95 2.04 1.91 1.70 1.64 1.54 1.63 1.44 1.49 1.43 1.34 1.19 1.20 1.18 1.16 1.09 1.15 1.23 1.32 1.31 1.20 1.14 1.11 1.16 1.18 1.14 0.96 0.87 0.75 0.71 0.66 0.62 0.55 0.44 0.36 0.27 0.21 0.18 0.16 0.16
0.55 0.66 0.76 0.75 0.86 0.97 0.99 1.08 1.07 1.10 1.22 1.32 1.76 1.61 1.62 1.80 1.93 1.97 1.93 1.68 1.56 1.36 1.22 1.15 1.11 1.04 0.99 1.08 0.86 0.87 0.97 1.07 1.19 1.31 1.25 1.12 1.09 1.11 1.02 0.95 0.85 0.84 0.86 1.02 0.85 0.63 0.47 0.32 0.25 0.24 0.24 0.23
0.59 0.58 0.58 0.62 0.69 0.75 0.68 0.85 1.00 1.35 1.39 1.65 1.40 1.62 1.80 1.85 1.90 1.95 1.78 1.83 1.86 1.92 1.75 1.66 1.35 1.15 1.08 1.06 1.08 0.97 0.98 0.99 1.03 1.13 1.14 1.16 1.12 1.07 0.89 0.85 0.87 0.94 0.99 1.03 0.88 0.71 0.64 0.56 0.40 0.28 0.25 0.25
0.48 0.44 0.57 0.68 0.69 0.67 0.72 0.71 0.87 1.08 0.80 0.88 0.95 1.04 1.16 1.29 1.46 1.62 1.75 1.99 1.90 2.04 1.77 1.65 1.53 1.43 1.20 1.08 0.99 0.96 0.92 0.91 0.93 0.94 0.95 0.98 1.06 1.08 1.05 0.94 0.82 0.75 0.74 0.97 1.03 1.13 1.10 0.96 0.62 0.50 0.36 0.27
0.32 0.37 0.52 0.62 0.73 0.81 0.81 0.79 0.73 0.64 0.69 0.70 0.70 0.74 0.80 0.83 0.87 1.07 1.10 1.33 1.33 1.50 1.68 1.71 1.58 1.50 1.36 1.16 1.07 0.98 0.92 0.87 0.84 0.79 0.84 0.83 0.85 0.92 1.04 1.02 0.87 0.78 0.73 0.75 0.88 1.23 1.14 1.10 0.94 0.77 0.55 0.28
0.39 0.46 0.45 0.44 0.49 0.53 0.65 0.70 0.66 0.73 0.70 0.68 0.72 0.75 0.70 0.83 0.87 0.80 0.78 0.87 1.13 1.10 1.24 1.27 1.41 1.35 1.30 1.25 1.12 1.05 0.93 0.91 0.75 0.75 0.66 0.64 0.65 0.68 0.70 0.83 0.87 0.93 0.80 0.81 0.85 1.00 1.20 1.18 1.01 0.72 0.46 0.36
0.35 0.36 0.41 0.47 0.47 0.42 0.42 0.41 0.44 0.51 0.63 0.64 0.80 1.12 0.76 0.80 0.96 0.95 0.97 1.08 1.12 1.21 1.10 1.25 1.21 1.23 1.16 1.12 1.15 1.14 1.02 0.94 0.87 0.75 0.81 0.78 0.66 0.67 0.68 0.70 0.77 0.75 0.72 0.67 0.75 0.88 0.96 0.97 0.95 0.82 0.65 0.60

ECMWFFLT2_prec_precacc_234.txt.gz
Total_Precipitation_Accumulation
1.13 1.31 1.31 1.17 1.33 1.67 1.12 0.94 1.24 1.14 0.81 0.82 0.75 0.70 0.65 0.60 0.64 0.61 1.17 1.13 1.02 1.02 1.27 1.84 2.05 2.25 2.21 2.02 1.96 2.18 2.10 2.07 2.12 2.23 2.48 2.71 2.78 2.56 2.06 1.49 1.29 1.36 1.25 1.60 1.67 1.08 2.09 1.54 1.34 0.70 0.96 1.71
0.98 2.04 1.19 1.35 1.31 1.48 2.70 2.62 1.08 1.06 1.22 1.13 0.83 0.81 0.71 0.96 1.02 0.91 1.02 1.19 1.05 1.14 1.16 1.16 1.11 1.58 1.77 1.89 1.84 1.80 1.68 1.83 1.88 1.77 1.77 1.87 1.72 1.77 1.91 2.08 2.25 2.22 1.75 1.34 1.06 1.06 0.95 1.62 1.71 1.40 1.28 0.90
1.65 2.31 1.73 1.39 1.30 1.35 1.23 1.74 2.10 1.78 1.22 1.11 1.69 1.38 1.18 0.95 0.93 0.88 0.83 0.66 0.64 0.48 0.61 0.58 0.66 0.82 1.26 1.86 1.59 1.74 1.65 1.57 1.65 1.83 1.71 1.51 1.70 1.69 1.47 1.36 1.28 1.27 1.32 1.14 1.04 1.12 1.24 1.18 1.14 0.75 0.74 1.06
1.83 1.59 1.42 1.81 1.72 1.54 1.58 1.35 1.25 1.73 2.25 1.94 1.58 1.39 1.86 1.96 1.35 0.85 0.63 0.65 0.53 0.62 0.33 0.41 0.25 0.34 0.53 0.71 1.08 1.40 1.57 1.45 1.47 1.48 1.66 1.72 1.48 1.51 1.47 1.43 1.32 1.33 1.26 1.26 1.06 1.01 0.94 1.33 1.70 1.16 0.78 0.74
1.42 1.32 2.01 1.15 1.31 1.30 1.37 1.77 1.40 1.44 1.48 1.51 1.92 1.58 1.15 1.24 1.20 0.85 0.58 0.56 0.59 0.53 0.42 0.32 0.38 0.35 0.41 0.45 0.56 0.75 0.89 1.18 1.41 1.57 1.49 1.47 1.33 1.47 1.30 1.41 1.50 1.32 1.38 1.26 1.08 0.92 0.92 0.93 1.05 1.19 1.20 0.96
1.64 1.34 1.00 1.20 1.75 1.47 1.32 1.19 1.34 1.25 1.22 1.21 1.01 1.00 0.91 1.12 1.25 1.19 1.04 0.92 0.64 0.66 0.62 0.59 0.42 0.44 0.36 0.42 0.57 0.67 1.02 0.95 0.99 1.25 1.37 1.44 1.44 1.22 1.11 1.33 1.40 1.56 1.44 1.42 1.25 1.37 1.11 1.02 1.08 0.98 0.81 0.90
1.60 0.73 0.76 1.28 1.36 1.33 0.94 1.13 1.28 1.14 1.31 0.91 1.21 0.93 0.78 0.65 0.62 0.73 0.68 0.74 0.75 0.82 0.75 0.66 0.60 0.48 0.42 0.42 0.53 0.70 0.66 0.94 1.13 1.33 1.07 0.95 1.14 1.37 1.42 1.34 1.33 1.45 1.48 1.63 1.21 1.26 1.27 1.37 1.15 1.04 0.98 0.77
1.91 1.56 1.41 1.26 1.81 1.29 1.17 0.96 1.29 1.13 1.30 1.62 0.79 1.07 0.78 0.77 0.62 0.60 0.46 0.45 0.51 0.51 0.49 0.53 0.43 0.40 0.44 0.40 0.38 0.47 0.59 0.62 0.67 0.77 0.85 0.87 0.87 0.85 0.96 1.20 1.19 1.27 1.59 1.37 1.35 1.22 1.23 1.24 1.27 1.12 1.21 1.06
2.12 2.35 1.43 1.77 1.76 1.18 1.30 0.87 0.63 0.75 0.83 0.88 0.84 0.75 0.91 0.90 0.75 0.60 0.64 0.50 0.43 0.43 0.38 0.40 0.33 0.34 0.27 0.29 0.36 0.32 0.44 0.43 0.47 0.55 0.69 0.61 0.69 0.74 0.77 0.73 0.80 1.00 1.27 1.29 1.24 1.20 1.18 1.27 1.21 1.01 1.04 1.06
1.59 2.03 2.07 1.60 1.79 1.89 1.59 1.79 1.60 0.86 0.97 1.00 0.94 0.78 0.92 0.74 0.54 0.62 0.53 0.49 0.41 0.23 0.21 0.22 0.26 0.19 0.31 0.43 0.41 0.52 0.44 0.36 0.48 0.41 0.43 0.54 0.56 0.59 0.53 0.58 0.57 0.60 0.81 1.06 1.19 1.15 1.04 1.07 1.06 1.05 1.04 0.97
2.32 2.15 2.23 2.68 2.61 1.80 1.98 1.62 1.30 1.06 1.12 1.15 0.84 1.19 0.98 0.93 0.80 0.67 0.55 0.39 0.64 0.42 0.36 0.31 0.33 0.38 0.37 0.28 0.25 0.30 0.29 0.21 0.33 0.25 0.23 0.21 0.21 0.35 0.39 0.43 0.44 0.57 0.62 0.69 0.83 1.00 1.14 1.09 0.97 0.93 0.99 0.96
2.27 1.69 1.88 2.29 2.36 3.21 2.76 2.86 2.42 1.67 1.50 1.68 1.58 1.39 1.28 1.26 1.29 1.25 1.06 0.74 0.66 0.72 1.03 0.65 0.80 0.52 0.46 0.29 0.35 0.23 0.31 0.20 0.16 0.25 0.23 0.19 0.13 0.15 0.23 0.33 0.38 0.44 0.48 0.61 0.62 0.68 0.84 0.97 0.91 0.86 0.83 0.79
1.95 1.90 1.75 2.15 2.23 1.88 2.03 1.93 2.41 2.39 2.44 2.11 1.75 1.41 1.26 1.38 1.02 0.99 0.93 1.32 1.15 0.93 0.86 0.71 0.71 0.63 0.61 0.52 0.42 0.46 0.29 0.32 0.18 0.25 0.27 0.25 0.18 0.20 0.25 0.25 0.31 0.38 0.39 0.48 0.61 0.59 0.61 0.73 0.82 0.80 0.83 0.74
1.29 1.63 1.75 1.69 1.71 1.85 1.70 2.02 2.05 1.93 2.21 2.22 2.01 1.94 2.04 1.78 1.43 1.11 1.08 1.08 1.07 1.12 1.21 0.97 0.84 0.82 0.77 0.70 0.55 0.43 0.43 0.32 0.24 0.20 0.24 0.28 0.27 0.27 0.18 0.15 0.18 0.28 0.36 0.37 0.45 0.57 0.60 0.62 0.63 0.73 0.77 0.80
1.27 1.21 1.51 1.63 1.82 1.62 1.46 1.71 1.81 2.11 1.93 1.79 1.80 1.92 2.01 2.32 2.21 1.98 1.65 1.49 1.14 1.07 0.98 1.00 0.94 0.83 0.73 0.76 0.60 0.81 0.51 0.46 0.38 0.26 0.23 0.21 0.19 0.21 0.12 0.10 0.15 0.15 0.16 0.26 0.34 0.43 0.50 0.58 0.56 0.53 0.71 0.72
1.21 1.08 1.30 1.39 1.40 1.83 1.86 1.73 1.88 1.76 1.61 2.06 2.43 1.69 1.47 1.26 1.67 1.42 1.52 1.58 1.35 1.30 1.25 1.17 1.14 1.03 0.96 0.80 0.79 0.79 0.78 0.60 0.52 0.45 0.45 0.38 0.24 0.23 0.15 0.12 0.10 0.15 0.14 0.12 0.17 0.30 0.36 0.45 0.66 0.56 0.57 0.60
1.41 1.44 1.19 1.23 1.12 1.28 1.77 1.88 1.81 1.81 1.68 1.90 1.89 2.02 2.00 2.45 2.20 1.89 1.64 1.64 1.41 1.29 1.29 1.35 1.30 1.26 1.15 1.12 1.22 1.20 0.99 0.90 0.86 0.68 0.44 0.45 0.36 0.45 0.30 0.36 0.31 0.24 0.19 0.24 0.22 0.18 0.27 0.41 0.45 0.55 0.59 0.54
1.53 1.36 1.24 1.69 1.21 1.33 1.25 1.51 1.63 1.89 1.71 1.33 1.43 1.59 1.65 1.68 1.35 1.48 1.44 1.37 1.37 1.33 1.44 1.43 1.36 1.36 1.20 1.10 1.08 1.07 0.94 1.07 1.00 0.98 0.74 0.69 0.52 0.42 0.38 0.31 0.29 0.24 0.23 0.23 0.23 0.27 0.25 0.22 0.37 0.40 0.43 0.56
1.79 1.71 1.69 1.60 1.48 1.58 1.51 1.58 1.54 1.50 1.41 1.69 1.53 1.53 1.58 1.33 1.35 1.16 1.11 1.37 1.28 1.35 1.30 1.39 1.35 1.31 1.47 1.30 1.21 1.19 1.09 1.11 1.05 1.13 0.88 0.85 0.56 0.48 0.43 0.33 0.26 0.26 0.27 0.26 0.20 0.21 0.23 0.25 0.27 0.31 0.39 0.39
0.72 0.95 1.63 2.25 1.96 2.19 1.95 1.68 2.00 2.48 2.00 2.09 2.20 2.37 1.80 1.69 2.36 1.74 1.59 1.43 1.36 1.34 1.30 1.17 1.15 1.20 1.15 1.30 1.14 1.21 1.24 1.21 1.12 1.01 1.00 0.79 0.64 0.51 0.44 0.39 0.36 0.32 0.28 0.25 0.25 0.20 0.17 0.20 0.24 0.27 0.30 0.36
0.45 0.73 0.96 0.96 1.53 1.92 2.09 1.83 2.02 1.95 2.13 1.87 1.58 1.98 1.81 1.90 1.76 1.71 1.63 1.73 1.68 1.51 1.54 1.34 1.18 1.12 1.15 1.15 1.20 1.18 1.12 0.99 1.07 0.93 0.94 0.93 0.88 0.69 0.62 0.55 0.42 0.31 0.28 0.27 0.30 0.34 0.41 0.32 0.29 0.29 0.24 0.30
0.74 0.83 0.63 0.89 1.28 1.17 1.37 1.56 1.67 1.94 1.87 1.61 1.45 1.78 1.91 1.89 1.63 1.87 1.77 1.61 1.49 1.38 1.36 1.49 1.36 1.22 1.21 1.17 1.18 1.19 1.17 1.11 1.00 0.94 0.91 0.92 0.95 0.90 0.73 0.64 0.58 0.51 0.40 0.30 0.26 0.25 0.22 0.22 0.24 0.32 0.33 0.29
0.75 0.82 0.88 0.96 1.14 1.30 1.51 1.50 1.31 1.59 1.54 1.64 1.65 1.56 1.63 1.74 1.73 1.57 1.57 1.64 1.59 1.54 1.49 1.56 1.57 1.48 1.38 1.28 1.25 1.27 1.24 1.25 1.16 0.98 0.85 0.81 0.77 0.82 0.90 0.80 0.63 0.56 0.47 0.43 0.40 0.29 0.29 0.25 0.21 0.18 0.18 0.17
0.56 0.74 0.94 0.93 1.06 1.17 1.24 1.38 1.57 1.66 1.57 1.40 1.36 1.58 1.82 2.09 1.71 1.66 1.75 1.67 1.61 1.62 1.59 1.57 1.58 1.54 1.61 1.44 1.39 1.36 1.36 1.27 1.14 1.23 1.18 1.06 0.92 0.91 0.90 0.90 0.85 0.71 0.61 0.54 0.47 0.39 0.30 0.25 0.21 0.18 0.16 0.17
0.71 0.62 0.71 0.87 0.86 0.98 1.11 1.16 1.27 1.31 1.49 1.73 1.95 2.04 1.91 1.70 1.64 1.55 1.64 1.47 1.58 1.61 1.56 1.39 1.38 1.36 1.35 1.30 1.39 1.48 1.58 1.57 1.47 1.39 1.32 1.34 1.34 1.28 1.10 0.99 0.86 0.80 0.75 0.70 0.64 0.52 0.41 0.31 0.24 0.20 0.18 0.18
0.55 0.66 0.77 0.75 0.86 0.98 1.00 1.08 1.07 1.10 1.22 1.33 1.76 1.62 1.62 1.80 1.94 1.98 1.95 1.71 1.62 1.49 1.39 1.32 1.28 1.20 1.16 1.27 1.07 1.09 1.21 1.31 1.42 1.53 1.43 1.27 1.23 1.23 1.13 1.06 0.95 0.92 0.93 1.10 0.94 0.72 0.55 0.37 0.28 0.26 0.25 0.25
0.60 0.58 0.59 0.63 0.69 0.75 0.69 0.85 1.01 1.35 1.39 1.65 1.40 1.62 1.80 1.85 1.91 1.95 1.79 1.85 1.90 2.00 1.88 1.82 1.53 1.34 1.28 1.26 1.28 1.17 1.18 1.21 1.24 1.33 1.30 1.30 1.24 1.22 1.00 0.95 0.96 1.01 1.05 1.09 0.94 0.77 0.70 0.65 0.48 0.35 0.31 0.30
0.48 0.44 0.57 0.69 0.69 0.68 0.73 0.71 0.87 1.08 0.80 0.88 0.95 1.04 1.17 1.30 1.46 1.63 1.76 2.01 1.92 2.06 1.81 1.71 1.62 1.57 1.36 1.26 1.18 1.15 1.13 1.14 1.16 1.16 1.14 1.15 1.20 1.20 1.19 1.07 0.92 0.83 0.80 1.02 1.09 1.19 1.16 1.03 0.67 0.57 0.43 0.32
0.32 0.37 0.53 0.63 0.74 0.82 0.82 0.79 0.74 0.65 0.70 0.71 0.71 0.75 0.80 0.83 0.87 1.08 1.11 1.35 1.35 1.52 1.71 1.74 1.63 1.59 1.48 1.30 1.22 1.14 1.08 1.05 1.02 0.98 1.02 0.99 0.99 1.04 1.15 1.15 1.00 0.90 0.83 0.83 0.94 1.30 1.23 1.21 1.03 0.84 0.60 0.32
0.39 0.46 0.45 0.44 0.49 0.53 0.65 0.70 0.66 0.74 0.71 0.69 0.72 0.75 0.71 0.84 0.87 0.81 0.80 0.90 1.16 1.13 1.28 1.31 1.46 1.42 1.40 1.37 1.26 1.18 1.05 1.04 0.88 0.88 0.80 0.77 0.76 0.79 0.79 0.91 0.98 1.06 0.91 0.91 0.94 1.10 1.29 1.28 1.11 0.80 0.51 0.43
0.35 0.36 0.42 0.47 0.47 0.43 0.42 0.41 0.44 0.52 0.64 0.64 0.82 1.14 0.79 0.83 1.01 0.99 1.02 1.12 1.16 1.25 1.14 1.30 1.27 1.31 1.26 1.23 1.27 1.26 1.14 1.06 0.99 0.87 0.92 0.87 0.74 0.74 0.74 0.75 0.84 0.82 0.82 0.76 0.85 1.00 1.09 1.08 1.04 0.88 0.73 0.71

ECMWFFLT2_prec_precacc_240.txt.gz
Total_Precipitation_Accumulation
1.14 1.35 1.43 1.25 1.39 1.77 1.21 1.02 1.35 1.28 1.13 1.29 1.05 1.00 1.13 1.10 1.00 0.81 1.43 1.23 1.06 1.06 1.28 1.85 2.05 2.25 2.21 2.02 1.96 2.18 2.10 2.07 2.12 2.23 2.48 2.71 2.78 2.56 2.07 1.50 1.29 1.36 1.25 1.60 1.68 1.08 2.09 1.54 1.34 0.70 0.96 1.72
1.02 2.13 1.35 1.43 1.45 1.97 2.91 2.74 1.42 1.50 1.59 1.54 1.19 1.27 1.07 1.49 1.59 1.36 1.30 1.39 1.16 1.20 1.22 1.17 1.11 1.58 1.77 1.89 1.84 1.80 1.68 1.83 1.88 1.77 1.77 1.87 1.72 1.77 1.92 2.09 2.25 2.22 1.75 1.34 1.07 1.07 0.95 1.62 1.71 1.40 1.28 0.91
1.66 2.33 1.75 1.92 2.07 1.64 1.48 2.02 2.46 2.32 1.58 1.83 2.33 1.87 1.58 1.19 1.47 1.36 0.93 0.74 0.75 0.61 0.67 0.61 0.68 0.82 1.26 1.86 1.59 1.74 1.65 1.57 1.65 1.83 1.72 1.51 1.71 1.70 1.47 1.36 1.28 1.27 1.32 1.14 1.04 1.12 1.25 1.19 1.14 0.75 0.75 1.07
1.83 1.60 1.42 1.81 1.72 1.60 1.61 1.84 1.68 1.87 2.41 2.16 1.90 1.59 2.10 2.35 1.84 1.19 0.84 0.82 0.65 0.84 0.45 0.46 0.27 0.34 0.53 0.71 1.08 1.40 1.57 1.45 1.47 1.48 1.66 1.72 1.48 1.51 1.47 1.43 1.32 1.33 1.26 1.26 1.06 1.01 0.95 1.34 1.70 1.16 0.79 0.75
1.42 1.33 2.01 1.15 1.31 1.30 1.37 1.83 1.53 1.65 1.57 1.71 2.17 2.01 1.32 1.66 1.50 1.27 1.10 0.83 0.80 0.68 0.53 0.40 0.43 0.37 0.42 0.45 0.56 0.76 0.89 1.18 1.41 1.57 1.49 1.48 1.34 1.47 1.30 1.41 1.50 1.32 1.38 1.26 1.08 0.92 0.92 0.93 1.05 1.20 1.21 0.97
1.64 1.34 1.00 1.20 1.75 1.47 1.32 1.19 1.36 1.48 1.41 1.51 1.40 1.22 1.63 1.41 1.67 1.42 1.14 1.01 0.76 0.78 0.71 0.65 0.45 0.45 0.36 0.42 0.57 0.67 1.02 0.98 1.03 1.26 1.38 1.46 1.45 1.22 1.11 1.33 1.40 1.56 1.44 1.42 1.25 1.37 1.11 1.02 1.08 0.98 0.81 0.91
1.61 0.74 0.77 1.28 1.36 1.33 0.94 1.13 1.28 1.14 1.45 1.10 1.53 1.42 1.10 0.89 0.75 0.87 0.88 1.00 1.03 0.97 0.92 0.87 0.84 0.53 0.44 0.43 0.54 0.70 0.67 0.95 1.15 1.34 1.08 0.96 1.15 1.37 1.42 1.34 1.33 1.45 1.48 1.63 1.21 1.26 1.27 1.37 1.15 1.04 0.98 0.78
1.92 1.57 1.41 1.26 1.81 1.29 1.17 0.96 1.29 1.13 1.38 1.64 0.85 1.57 1.07 1.03 0.99 1.03 1.00 0.79 0.91 0.92 0.96 0.70 0.58 0.53 0.49 0.45 0.41 0.50 0.63 0.69 0.70 0.80 0.88 0.91 0.88 0.85 0.96 1.20 1.19 1.27 1.59 1.37 1.35 1.22 1.23 1.24 1.27 1.12 1.22 1.06
2.12 2.35 1.43 1.77 1.77 1.18 1.30 0.87 0.63 0.75 0.83 1.08 1.13 1.06 1.15 1.18 1.08 0.93 0.99 0.73 0.69 0.63 0.58 0.60 0.46 0.44 0.36 0.37 0.46 0.43 0.66 0.72 0.66 0.68 0.92 0.82 0.84 0.79 0.80 0.73 0.80 1.00 1.27 1.29 1.24 1.20 1.18 1.28 1.22 1.02 1.04 1.07
1.59 2.03 2.07 1.60 1.79 1.89 1.59 1.80 1.60 0.86 0.97 1.02 1.21 0.91 1.21 0.97 0.92 1.03 0.85 0.68 0.66 0.68 0.81 0.56 0.84 0.59 0.90 0.73 0.65 0.70 0.76 0.59 0.88 0.81 0.70 0.83 0.85 0.76 0.63 0.65 0.60 0.61 0.81 1.07 1.19 1.15 1.04 1.07 1.07 1.12 1.11 0.98
2.32 2.15 2.23 2.68 2.61 1.80 1.98 1.62 1.30 1.06 1.12 1.15 0.84 1.20 1.03 1.32 1.01 0.94 1.11 0.93 1.06 0.65 0.77 0.86 0.88 0.86 0.84 0.64 0.67 0.68 0.68 0.63 0.68 0.62 0.60 0.70 0.59 0.61 0.56 0.62 0.55 0.61 0.66 0.71 0.84 1.00 1.14 1.09 0.97 0.93 1.00 0.97
2.28 1.69 1.88 2.29 2.36 3.21 2.76 2.86 2.42 1.67 1.50 1.68 1.58 1.39 1.31 1.33 1.45 1.51 1.71 1.11 1.04 1.41 1.46 1.21 1.44 1.08 0.97 0.84 0.86 0.68 0.80 0.82 0.88 1.11 1.16 1.08 0.87 0.73 0.66 0.65 0.60 0.59 0.59 0.68 0.69 0.71 0.86 0.99 0.93 0.87 0.83 0.80
1.95 1.90 1.75 2.16 2.23 1.88 2.03 1.94 2.41 2.39 2.44 2.11 1.75 1.41 1.26 1.42 1.17 1.19 1.17 1.61 1.47 1.36 1.42 1.35 1.45 1.49 1.53 1.55 1.53 1.56 1.33 1.34 1.11 1.14 1.20 1.10 0.95 0.83 0.84 0.73 0.69 0.68 0.62 0.68 0.77 0.70 0.71 0.82 0.90 0.88 0.90 0.80
1.29 1.64 1.76 1.69 1.71 1.85 1.70 2.02 2.06 1.93 2.21 2.23 2.01 1.94 2.04 1.81 1.58 1.38 1.41 1.45 1.43 1.58 1.83 1.63 1.46 1.55 1.48 1.49 1.43 1.21 1.26 1.15 1.06 1.02 1.05 1.09 1.01 1.02 0.96 0.90 0.90 0.92 0.89 0.80 0.78 0.85 0.87 0.84 0.82 0.92 0.99 0.98
1.27 1.21 1.51 1.64 1.83 1.62 1.46 1.72 1.82 2.11 1.94 1.79 1.80 1.92 2.01 2.35 2.35 2.22 2.02 2.17 1.74 1.66 1.53 1.58 1.55 1.48 1.39 1.43 1.38 1.59 1.20 1.09 1.06 1.06 1.11 1.03 1.00 0.99 0.86 0.86 0.89 0.85 0.82 0.86 0.89 0.94 1.01 1.12 1.04 0.92 1.00 0.93
1.21 1.08 1.31 1.39 1.41 1.83 1.86 1.74 1.89 1.76 1.62 2.07 2.43 1.69 1.47 1.26 1.68 1.45 1.59 1.75 1.58 1.62 1.64 1.60 1.62 1.65 1.57 1.52 1.46 1.56 1.48 1.32 1.31 1.25 1.26 1.21 1.04 1.00 0.89 0.83 0.79 0.85 0.85 0.80 0.81 0.88 0.89 0.91 1.03 0.87 0.84 0.85
1.41 1.45 1.19 1.23 1.12 1.28 1.78 1.88 1.82 1.82 1.69 1.91 1.90 2.03 2.00 2.46 2.20 1.89 1.65 1.65 1.48 1.43 1.40 1.57 1.57 1.55 1.65 1.59 1.69 1.81 1.62 1.44 1.42 1.19 0.98 1.03 0.89 1.00 0.88 0.96 0.92 0.84 0.76 0.79 0.75 0.67 0.73 0.85 0.88 0.98 1.00 0.94
1.54 1.36 1.25 1.70 1.22 1.33 1.26 1.52 1.64 1.89 1.72 1.34 1.44 1.59 1.66 1.69 1.36 1.49 1.45 1.39 1.40 1.37 1.50 1.52 1.42 1.46 1.33 1.25 1.25 1.25 1.14 1.28 1.28 1.31 1.12 1.11 0.97 0.89 0.87 0.79 0.75 0.69 0.65 0.61 0.59 0.61 0.58 0.55 0.71 0.74 0.78 0.94
1.79 1.71 1.70 1.61 1.49 1.59 1.52 1.59 1.55 1.50 1.42 1.69 1.53 1.54 1.58 1.34 1.36 1.17 1.12 1.38 1.30 1.38 1.34 1.48 1.42 1.38 1.55 1.39 1.30 1.29 1.28 1.30 1.27 1.40 1.21 1.23 0.97 0.90 0.85 0.74 0.63 0.60 0.59 0.57 0.50 0.51 0.55 0.59 0.63 0.68 0.76 0.74
0.73 0.95 1.64 2.25 1.98 2.20 1.96 1.69 2.01 2.49 2.00 2.09 2.21 2.37 1.80 1.69 2.37 1.75 1.60 1.44 1.37 1.35 1.34 1.26 1.25 1.32 1.35 1.48 1.33 1.46 1.44 1.45 1.40 1.35 1.39 1.18 1.02 0.86 0.76 0.67 0.61 0.56 0.52 0.49 0.49 0.44 0.41 0.43 0.47 0.50 0.54 0.60
0.45 0.74 0.97 0.96 1.54 1.93 2.09 1.83 2.03 1.95 2.13 1.87 1.58 1.98 1.81 1.90 1.76 1.72 1.63 1.73 1.68 1.51 1.55 1.35 1.22 1.32 1.19 1.23 1.35 1.27 1.22 1.10 1.18 1.06 1.10 1.14 1.10 0.90 0.84 0.74 0.60 0.48 0.44 0.42 0.45 0.49 0.55 0.46 0.45 0.46 0.40 0.47
0.74 0.83 0.63 0.90 1.28 1.17 1.37 1.57 1.67 1.94 1.87 1.61 1.45 1.78 1.91 1.89 1.63 1.87 1.77 1.61 1.49 1.38 1.36 1.49 1.36 1.23 1.23 1.18 1.23 1.27 1.27 1.22 1.11 1.07 1.05 1.07 1.10 1.05 0.89 0.82 0.77 0.72 0.59 0.47 0.40 0.38 0.35 0.35 0.36 0.44 0.44 0.42
0.75 0.82 0.89 0.96 1.14 1.30 1.52 1.51 1.31 1.60 1.55 1.64 1.65 1.56 1.63 1.74 1.73 1.57 1.57 1.64 1.59 1.54 1.49 1.56 1.58 1.48 1.38 1.29 1.27 1.32 1.29 1.34 1.26 1.11 0.97 0.94 0.91 0.98 1.05 0.96 0.78 0.72 0.62 0.59 0.57 0.46 0.44 0.39 0.34 0.30 0.29 0.29
0.56 0.74 0.94 0.93 1.06 1.17 1.24 1.38 1.57 1.66 1.57 1.40 1.36 1.58 1.82 2.09 1.71 1.66 1.75 1.68 1.61 1.62 1.60 1.57 1.58 1.54 1.61 1.45 1.40 1.39 1.38 1.31 1.18 1.27 1.23 1.13 1.00 1.01 1.00 1.01 0.96 0.81 0.71 0.65 0.61 0.55 0.44 0.38 0.32 0.29 0.27 0.29
0.71 0.62 0.71 0.87 0.86 0.98 1.11 1.16 1.27 1.31 1.49 1.74 1.95 2.05 1.91 1.71 1.64 1.55 1.64 1.47 1.58 1.62 1.56 1.39 1.39 1.36 1.35 1.31 1.39 1.49 1.59 1.59 1.49 1.43 1.38 1.40 1.41 1.36 1.19 1.09 0.96 0.89 0.83 0.81 0.78 0.67 0.54 0.44 0.36 0.32 0.29 0.29
0.55 0.66 0.77 0.75 0.86 0.98 1.00 1.08 1.07 1.11 1.22 1.33 1.76 1.62 1.62 1.80 1.94 1.98 1.95 1.71 1.63 1.49 1.39 1.33 1.28 1.21 1.16 1.27 1.07 1.10 1.21 1.32 1.44 1.56 1.47 1.31 1.27 1.28 1.18 1.11 1.01 0.98 0.99 1.21 1.05 0.81 0.67 0.52 0.43 0.38 0.35 0.34
0.60 0.58 0.59 0.63 0.70 0.76 0.69 0.85 1.01 1.35 1.39 1.65 1.40 1.62 1.80 1.85 1.91 1.95 1.79 1.85 1.90 2.00 1.88 1.82 1.54 1.35 1.28 1.26 1.28 1.17 1.19 1.21 1.25 1.34 1.32 1.33 1.27 1.26 1.05 1.00 1.02 1.07 1.11 1.17 1.02 0.89 0.88 0.84 0.62 0.47 0.42 0.39
0.48 0.44 0.57 0.69 0.69 0.68 0.73 0.71 0.87 1.08 0.80 0.88 0.95 1.04 1.17 1.30 1.46 1.63 1.76 2.01 1.92 2.07 1.81 1.72 1.62 1.57 1.36 1.27 1.19 1.16 1.13 1.14 1.17 1.16 1.16 1.17 1.22 1.23 1.23 1.12 0.97 0.91 0.88 1.10 1.18 1.37 1.33 1.18 0.79 0.70 0.51 0.38
0.32 0.37 0.53 0.63 0.74 0.82 0.82 0.79 0.74 0.65 0.70 0.71 0.71 0.75 0.80 0.83 0.87 1.08 1.11 1.35 1.36 1.53 1.72 1.75 1.64 1.60 1.49 1.31 1.24 1.16 1.11 1.08 1.06 1.01 1.03 1.00 1.01 1.06 1.18 1.19 1.08 1.00 0.93 0.93 1.06 1.46 1.39 1.35 1.15 0.93 0.66 0.37
0.39 0.46 0.45 0.44 0.49 0.53 0.65 0.70 0.66 0.74 0.71 0.69 0.72 0.76 0.71 0.84 0.87 0.81 0.81 0.92 1.19 1.17 1.31 1.35 1.50 1.45 1.43 1.40 1.27 1.20 1.07 1.06 0.90 0.91 0.82 0.79 0.79 0.83 0.83 0.95 1.02 1.11 0.97 0.96 1.01 1.17 1.39 1.37 1.20 0.87 0.56 0.48
0.35 0.36 0.42 0.47 0.47 0.43 0.42 0.41 0.44 0.52 0.64 0.64 0.82 1.14 0.79 0.83 1.01 0.99 1.02 1.12 1.16 1.25 1.14 1.31 1.28 1.33 1.28 1.26 1.30 1.30 1.18 1.10 1.03 0.91 0.97 0.93 0.81 0.81 0.81 0.82 0.91 0.89 0.87 0.80 0.88 1.04 1.12 1.12 1.08 0.92 0.79 0.79